GEFSSGP_500_meanwind_000.txt.gz
Wind_Speed
8 10 10 9 8 7 10 13 19 23 20 20 23 24 25 24 21 20 20 22 22 20 17 16 14 14 17 18 21 21 20 20 19 18 18 18 17 17 16 15 15 16 16 16 16 16 15 15 14
5 7 9 10 11 10 12 12 15 19 20 22 24 24 25 26 24 22 23 22 20 17 13 13 12 14 17 21 26 24 22 22 20 19 19 18 18 18 17 17 18 19 20 19 19 18 18 18 18
1 1 2 6 14 15 16 17 16 18 20 22 23 24 24 25 23 21 19 16 13 13 13 11 13 16 17 19 23 24 25 26 24 22 21 21 20 21 21 22 24 24 24 24 25 24 24 23 22
3 3 1 1 7 13 17 16 15 17 18 20 21 22 22 22 21 17 13 10 9 10 10 10 12 11 14 16 18 24 26 26 25 23 24 26 24 22 22 28 29 27 27 28 31 33 29 28 25
7 6 5 3 1 5 6 7 10 15 16 16 19 20 20 20 17 12 9 8 5 4 4 7 10 11 17 20 22 26 28 26 26 25 26 31 27 27 28 31 30 26 30 31 32 36 30 32 31
9 8 9 8 7 6 4 2 5 11 13 15 17 18 16 12 7 5 5 4 3 1 3 6 11 14 14 18 22 30 32 29 28 28 27 27 29 29 26 26 25 25 25 28 29 25 23 25 27
9 9 9 8 8 7 6 2 3 6 7 10 13 14 12 9 7 3 1 4 5 4 8 11 14 15 16 13 14 19 25 25 26 24 25 27 27 27 26 23 23 26 26 24 22 24 26 23 23
7 7 7 7 6 6 6 4 3 9 13 14 13 9 7 9 8 6 4 4 6 8 10 13 17 20 21 20 21 21 23 24 25 25 26 27 26 29 30 29 28 27 27 25 25 26 27 26 24
5 5 4 4 3 3 4 3 2 6 10 13 12 7 7 9 9 9 8 9 9 11 12 14 15 18 22 24 24 25 26 27 27 26 27 28 27 27 27 29 30 29 29 29 30 30 29 29 26
5 4 5 5 4 3 1 1 1 4 5 7 7 6 9 12 11 10 11 12 12 13 13 14 15 17 19 21 24 27 28 29 29 30 29 28 27 27 27 28 29 30 30 30 32 33 33 32 32
7 8 8 8 9 7 5 5 5 6 9 8 9 11 14 17 15 14 13 13 14 14 15 16 17 19 20 22 24 27 29 28 28 29 28 27 27 28 28 29 29 30 31 32 33 34 35 35 35
11 10 11 13 13 11 9 7 9 8 12 12 13 14 17 19 18 18 15 14 14 15 16 18 19 21 22 23 25 26 29 29 27 27 27 27 29 30 31 32 32 33 34 35 36 37 37 38 39
13 13 14 15 17 15 13 12 12 12 14 13 16 16 16 19 22 20 17 17 18 18 20 22 24 25 25 26 27 28 29 30 30 30 31 33 34 33 33 33 33 34 35 36 37 38 39 40 41
15 15 17 19 20 19 17 17 14 14 17 16 18 17 19 21 23 22 20 20 22 24 25 26 28 28 27 27 27 28 30 32 33 34 36 37 38 38 38 39 39 39 39 38 38 39 40 42 43
16 17 19 21 20 20 19 19 18 16 16 17 18 18 19 19 22 24 24 25 25 25 26 27 28 29 29 29 30 30 32 34 36 37 39 39 41 42 44 45 46 46 45 45 45 45 46 47 49
18 19 20 22 20 21 18 17 19 17 16 17 18 19 17 16 21 25 26 25 25 25 28 29 30 31 31 28 30 32 34 36 38 37 38 39 40 42 44 46 48 49 49 50 53 56 57 58 60
20 19 20 23 21 21 19 19 21 18 16 18 21 20 19 18 22 25 24 24 26 28 30 29 30 30 27 24 26 29 32 35 36 35 37 40 43 45 47 49 50 51 54 57 59 61 63 63 65
21 20 21 22 23 20 22 23 22 18 15 18 21 21 23 22 23 25 26 28 29 32 33 31 32 34 29 24 25 26 30 31 32 35 38 42 44 47 50 52 52 55 59 61 61 62 62 62 64
22 20 20 22 22 20 24 24 21 20 18 19 22 23 24 24 23 26 29 31 33 35 37 36 37 43 40 30 33 29 28 31 35 37 40 44 48 51 54 56 59 62 63 64 65 64 65 66 69
22 20 21 22 21 21 25 25 24 23 22 21 23 25 25 26 28 30 32 33 35 36 38 37 37 39 46 48 33 34 34 39 43 42 45 48 49 54 59 62 64 67 68 70 72 73 75 76 79
22 21 22 22 23 24 26 24 26 26 27 27 27 28 28 29 32 34 34 35 34 34 36 38 40 41 40 42 43 48 48 52 49 49 50 50 54 59 64 67 70 73 76 78 81 82 84 85 86
22 23 23 24 22 19 23 18 25 26 27 27 28 29 31 32 33 34 34 33 33 34 36 39 42 45 44 50 54 54 53 54 54 54 55 59 63 67 70 73 75 78 79 80 80 81 82 83 82
23 23 23 24 21 22 22 18 23 26 25 25 26 27 29 30 30 31 34 35 36 37 39 42 44 47 49 51 53 55 56 57 58 60 64 67 70 74 76 78 79 80 80 78 76 75 74 73 72
23 23 24 23 20 20 19 19 18 27 24 25 25 26 28 30 32 34 36 38 39 41 43 44 45 47 50 52 54 55 57 59 62 66 69 72 75 77 79 80 81 80 78 75 73 69 67 66 64
23 22 18 18 17 18 23 22 22 26 25 25 26 28 30 32 34 36 38 40 41 42 42 43 44 44 46 49 52 55 59 64 67 70 73 76 79 80 81 82 82 80 76 70 66 63 63 64 64
22 21 18 18 17 19 27 25 25 24 25 26 27 29 31 32 33 34 35 36 37 37 37 39 41 43 46 51 56 61 65 69 72 75 78 81 82 83 83 81 80 76 68 65 64 62 60 58 58
24 24 22 22 23 23 24 27 25 23 25 26 29 30 30 31 31 31 31 31 32 33 36 39 43 47 52 57 62 66 70 74 77 81 83 84 84 83 80 76 68 61 59 58 55 51 48 47 46
26 24 24 23 21 22 20 23 24 24 25 29 31 32 33 32 31 31 32 35 37 39 42 46 49 54 58 63 67 72 76 80 83 86 85 83 80 76 67 58 54 51 51 50 48 44 41 40 38
26 26 26 24 24 22 20 23 28 31 31 34 35 36 35 34 35 36 38 40 43 45 48 51 55 60 64 69 73 77 81 85 86 85 82 75 65 54 49 47 46 45 44 43 42 40 39 37 35
28 27 26 26 24 26 25 27 32 34 35 38 38 38 38 38 40 41 42 44 47 49 53 57 61 66 70 75 79 82 84 85 82 73 60 49 43 42 42 41 39 37 36 35 35 34 35 36 35

GEFSSGP_500_meanwind_006.txt.gz
Wind_Speed
2 3 3 2 4 9 8 6 7 19 19 21 15 13 22 22 24 24 25 27 26 25 25 25 23 20 19 19 19 20 21 21 21 21 22 22 22 22 21 21 21 22 21 21 21 21 21 21 21
4 3 4 4 8 15 10 4 22 25 23 16 15 20 25 21 21 22 23 24 24 24 25 23 19 17 17 19 20 21 22 21 21 22 24 24 24 24 24 24 23 23 23 23 23 24 24 24 25
7 5 6 7 13 13 1 15 25 20 16 11 21 26 21 19 19 19 20 21 20 20 20 19 17 16 17 18 19 20 21 21 22 24 26 27 26 25 25 25 26 26 26 26 26 28 29 28 29
8 9 10 11 11 1 9 16 22 18 16 16 21 25 16 15 16 16 16 14 13 13 13 14 15 15 14 14 15 16 18 20 23 25 27 28 29 28 27 28 29 30 31 31 31 32 34 34 35
10 11 15 17 4 10 16 18 16 11 15 16 17 18 16 15 14 13 12 11 11 11 11 12 12 12 11 12 14 15 17 20 24 26 28 29 30 30 30 31 32 33 34 32 31 31 34 34 35
11 12 21 10 8 8 7 8 5 9 13 13 15 17 16 16 13 12 11 11 12 13 13 12 11 11 11 13 15 17 18 21 23 25 28 29 32 32 31 32 32 32 32 31 30 28 29 29 27
4 8 16 3 10 5 4 5 5 6 9 9 12 21 16 15 13 12 13 12 11 12 13 12 12 12 14 16 18 20 21 22 24 25 27 27 27 27 28 29 30 31 32 32 31 29 30 29 30
5 11 15 1 6 6 6 4 7 9 12 13 15 20 18 17 16 15 15 17 16 14 12 13 14 14 16 18 20 22 25 26 27 27 28 29 30 29 28 29 30 31 31 31 30 30 30 31 32
9 15 12 3 6 8 7 5 8 10 11 15 20 22 19 18 16 17 17 17 18 17 16 18 16 14 16 18 20 22 25 27 28 28 29 29 30 29 29 28 28 28 28 29 30 30 30 31 31
9 12 3 12 8 5 8 7 10 12 10 12 18 22 21 19 17 19 20 19 17 19 21 20 20 20 19 21 22 24 26 28 30 30 30 30 30 29 28 26 26 26 27 29 30 32 33 33 33
8 4 11 17 16 10 7 8 11 10 11 10 17 22 22 23 18 21 21 20 18 20 23 22 21 22 22 24 25 27 28 31 33 33 33 31 31 30 29 28 28 28 30 31 33 34 35 36 37
9 10 14 14 15 12 8 10 12 10 13 15 16 24 29 28 27 25 24 24 23 24 25 24 23 25 27 28 28 30 31 32 34 35 35 34 34 33 33 33 33 33 32 32 33 34 35 37 39
14 12 13 15 14 13 11 11 14 12 12 17 20 26 36 31 27 26 25 24 25 26 27 26 26 28 30 31 31 32 34 35 35 36 36 36 36 36 35 36 36 36 35 35 36 38 39 41 43
17 12 16 18 15 13 14 13 14 14 16 15 21 25 30 27 24 25 25 26 28 27 28 27 27 28 29 30 30 31 34 36 38 39 39 38 38 38 37 36 36 38 40 41 42 44 46 48 48
20 19 20 19 16 15 15 14 12 16 20 17 21 22 27 27 25 27 30 31 32 31 30 30 28 27 29 31 32 32 34 35 37 38 38 39 40 40 38 37 38 39 42 44 47 50 53 54 54
21 20 19 15 14 16 17 14 9 13 18 17 19 17 25 29 26 30 33 31 33 35 34 32 26 25 29 33 35 36 36 37 38 36 36 39 42 43 42 40 41 43 46 49 51 53 55 56 55
20 18 15 12 13 16 20 16 12 20 21 20 18 16 24 29 26 31 33 30 29 34 36 29 20 27 31 34 35 34 34 36 37 36 37 42 46 47 44 43 45 48 51 52 54 55 57 57 57
17 12 13 17 11 20 25 23 18 24 22 21 17 17 25 29 28 30 33 33 33 38 38 34 41 42 40 40 39 37 36 37 37 38 43 46 45 45 45 46 48 52 53 53 55 57 58 60 62
18 16 16 14 17 23 27 22 23 26 22 20 18 22 28 31 30 32 34 37 40 43 46 49 51 49 48 46 44 42 42 43 44 45 49 49 46 45 47 48 51 55 56 57 59 61 63 65 67
21 22 22 22 21 26 28 23 28 27 26 25 24 26 28 32 34 33 35 37 41 44 48 51 52 52 52 50 48 47 48 48 50 51 51 49 47 48 53 55 57 58 59 61 64 66 68 69 70
26 25 23 21 19 26 28 25 29 28 26 24 25 28 30 33 35 34 34 37 40 43 47 50 52 53 52 52 51 51 52 53 54 53 53 50 49 58 61 59 60 62 63 66 69 72 74 74 75
28 23 22 22 23 23 26 23 28 31 29 26 26 29 32 31 32 34 36 38 41 43 45 47 48 50 51 51 52 53 54 55 56 56 57 58 64 67 67 69 71 73 74 75 77 79 80 81 82
26 22 20 21 25 27 25 24 28 35 34 30 28 29 30 30 32 35 37 40 41 42 43 44 46 47 48 48 49 50 52 53 55 56 58 62 66 70 73 76 79 81 83 85 86 86 86 86 85
24 23 24 26 26 27 24 24 30 38 38 33 29 28 32 36 38 38 37 38 39 40 41 42 43 43 43 44 46 48 50 52 55 58 61 65 68 72 76 80 83 86 88 90 90 89 86 83 79
24 25 26 26 26 26 23 25 31 41 41 35 32 35 40 42 42 40 37 36 37 37 37 38 39 40 42 45 46 48 51 54 57 61 64 68 72 76 79 82 83 84 85 85 82 77 72 66 59
28 27 27 24 21 19 19 27 37 39 39 37 35 38 41 41 40 38 36 36 36 36 36 37 40 42 45 47 49 51 53 56 60 65 70 74 77 78 78 77 74 72 68 65 59 53 48 45 43
25 25 22 24 25 25 25 29 32 33 33 34 36 40 39 36 37 37 38 38 38 39 39 41 43 46 48 51 52 54 57 61 66 70 74 75 74 70 66 60 56 52 49 46 42 39 38 38 38
24 24 23 26 28 29 28 28 34 35 36 37 39 39 37 37 40 42 42 41 41 41 42 44 46 48 51 52 54 57 62 66 67 66 64 61 55 50 46 44 43 42 41 39 37 36 36 37 37
28 28 29 29 29 31 31 32 40 38 36 37 39 38 38 40 43 45 45 44 43 43 44 46 49 51 52 54 57 61 64 62 58 53 49 44 40 37 36 36 36 35 34 35 35 34 34 33 33
32 31 28 32 34 33 30 34 38 37 39 40 39 38 40 44 47 48 47 46 45 45 47 49 51 52 54 56 59 62 59 52 45 43 41 38 37 35 35 34 34 34 33 32 31 30 29 28 28

GEFSSGP_500_meanwind_012.txt.gz
Wind_Speed
10 13 15 14 12 14 14 12 9 5 5 8 12 17 22 24 24 25 25 24 23 23 22 20 19 18 18 17 17 16 16 17 19 20 20 20 20 19 19 19 20 21 21 22 23 23 24 24 25
15 18 18 16 12 14 12 8 5 5 8 12 15 19 21 22 23 22 20 19 18 18 17 16 15 15 14 14 15 15 15 17 19 20 20 21 21 21 21 21 22 23 24 25 25 26 27 28 29
17 20 18 13 10 8 7 3 3 8 14 17 19 19 20 19 17 16 15 14 14 14 14 13 12 12 11 12 13 14 14 15 17 19 20 20 21 22 24 24 25 26 27 28 28 29 30 31 33
19 21 16 11 10 6 3 5 11 15 17 19 19 18 16 13 12 13 12 12 12 13 13 13 12 11 10 11 12 13 13 13 14 16 18 19 21 23 25 27 28 29 30 31 32 32 34 36 37
19 19 15 12 9 3 4 11 17 19 18 18 14 12 13 13 12 12 12 12 14 14 14 13 13 11 10 10 11 11 12 12 13 14 16 18 20 23 25 26 28 28 30 32 33 34 36 37 37
19 17 15 11 6 1 9 14 18 16 15 13 12 11 14 14 12 13 14 14 15 15 14 12 11 11 10 10 11 11 13 15 16 17 17 18 20 21 21 21 22 24 25 27 29 30 31 31 31
17 14 12 7 1 5 9 13 14 13 13 12 11 13 14 14 14 14 15 15 16 16 14 11 9 10 10 11 12 14 15 17 19 19 19 19 19 20 20 21 21 22 23 24 24 25 25 26 26
14 11 9 5 3 4 9 15 16 15 14 15 15 15 16 16 16 16 17 17 17 15 13 10 10 11 11 12 14 15 17 19 21 22 22 23 23 22 22 22 22 22 22 22 23 24 24 24 24
15 14 11 9 6 3 10 16 17 17 18 18 17 18 19 20 20 19 21 20 18 16 13 12 13 13 13 13 15 17 20 22 24 25 26 27 27 26 26 25 24 23 23 23 24 25 25 25 26
17 17 12 10 8 5 11 14 16 18 18 19 19 21 23 23 22 22 23 20 17 14 14 15 14 15 15 15 17 19 22 24 26 26 26 27 28 28 28 27 26 26 25 26 26 27 28 29 29
18 17 13 11 9 9 13 14 17 19 18 19 21 23 25 25 24 23 22 16 13 14 16 17 17 16 16 17 19 21 23 25 25 25 25 25 26 27 27 27 27 27 26 27 28 29 30 31 31
19 18 16 13 15 16 17 19 20 21 20 21 22 24 25 25 24 23 21 17 15 17 18 21 22 18 16 16 17 19 21 23 25 25 26 26 27 27 28 27 26 27 28 30 30 31 32 33 33
21 21 18 15 18 22 23 24 26 25 23 23 23 24 25 25 24 23 23 22 22 23 24 23 23 19 17 17 17 18 21 24 27 29 29 29 29 29 29 29 28 29 31 33 35 36 36 36 37
23 22 21 19 18 23 26 28 28 26 25 23 23 25 26 26 26 25 25 26 27 28 27 29 27 26 26 23 21 21 24 27 30 32 31 31 30 30 31 32 32 33 35 37 39 40 41 42 43
23 22 19 18 18 20 24 26 26 25 26 24 24 26 27 27 27 27 28 29 30 30 30 32 33 33 33 30 26 28 30 30 31 32 32 33 34 35 37 37 38 40 42 43 45 46 46 47 48
23 21 18 15 14 13 19 20 18 22 25 25 25 27 29 28 29 29 30 31 32 32 34 35 34 35 35 32 32 33 33 33 33 33 34 35 36 38 39 40 42 44 45 47 49 50 50 49 50
23 21 14 10 10 10 14 15 15 19 22 24 26 28 31 32 32 33 33 34 34 34 36 37 37 37 37 36 35 34 34 34 34 35 36 37 38 39 40 42 43 44 46 48 49 49 50 51 52
23 20 15 15 13 13 15 17 19 22 23 25 27 30 33 34 35 34 34 34 34 36 37 38 39 39 38 37 37 36 36 35 35 35 35 36 38 40 41 43 45 47 49 50 51 51 54 57 58
25 24 21 21 18 17 17 21 24 26 27 28 30 32 34 33 34 33 32 32 34 35 37 38 39 39 40 40 39 39 38 38 37 38 38 39 40 42 45 47 49 51 53 54 55 58 61 64 67
28 26 24 23 19 16 16 18 23 28 31 32 34 34 33 31 31 31 31 31 33 35 37 38 39 40 40 41 41 41 41 41 41 41 42 43 45 47 49 51 54 55 58 60 62 64 67 71 74
28 26 25 26 24 21 19 19 24 30 34 36 36 33 29 27 27 29 30 31 32 34 37 38 38 39 40 41 42 43 43 44 44 46 47 49 51 52 54 56 57 59 62 65 67 69 72 74 75
27 23 25 27 30 28 26 26 28 33 37 38 35 31 27 27 29 31 32 32 32 34 36 36 37 39 41 43 44 45 46 47 48 50 52 54 55 57 59 60 61 64 65 66 67 67 68 68 68
26 23 24 27 31 35 35 35 34 38 40 38 35 31 30 31 33 34 34 33 33 35 35 36 38 41 44 46 47 48 50 51 52 54 56 57 59 61 62 63 65 64 64 62 61 61 60 59 58
25 25 26 30 32 35 35 39 42 43 41 39 37 35 34 35 36 37 37 36 36 37 37 38 41 44 47 49 50 52 53 54 55 57 59 60 61 62 63 64 63 62 58 56 55 55 54 53 53
29 28 30 34 37 37 32 37 42 43 43 43 42 39 38 38 40 41 41 40 41 40 40 41 44 47 50 52 53 55 55 57 58 60 61 62 62 62 62 61 59 55 51 49 49 49 49 50 50
28 31 32 33 34 32 32 36 36 37 39 39 39 39 39 40 42 43 42 42 43 42 42 44 46 48 52 55 56 57 57 58 60 61 62 63 62 61 60 56 51 47 45 44 45 46 48 49 49
26 29 29 31 31 30 32 33 34 33 33 35 36 37 36 37 38 39 39 40 41 42 44 45 46 49 53 56 57 57 59 61 63 64 64 63 62 60 55 48 44 42 41 43 45 47 48 49 50
29 28 29 32 33 34 36 37 37 35 34 34 35 35 35 34 35 36 37 39 41 44 46 46 48 51 55 57 59 61 63 64 66 67 67 65 60 54 46 42 40 40 42 45 47 49 50 51 51
29 30 31 33 35 35 35 34 32 37 39 39 40 40 40 39 38 38 39 41 43 45 46 46 49 53 56 59 63 65 66 67 67 67 64 57 49 42 39 38 39 41 44 47 49 51 52 52 52
31 29 30 35 37 37 37 34 32 35 38 41 43 43 43 43 42 42 42 43 44 44 43 46 50 54 58 62 66 66 66 66 65 61 52 43 38 35 36 37 40 44 47 50 52 52 52 52 51

GEFSSGP_500_meanwind_018.txt.gz
Wind_Speed
10 11 13 14 14 16 15 13 9 6 6 7 10 14 18 20 21 21 19 18 16 14 12 11 10 9 8 8 8 8 9 10 11 12 13 13 14 14 15 16 17 17 18 19 19 20 20 21 22
11 12 12 12 11 13 13 10 8 7 7 7 10 14 17 18 19 18 16 13 11 10 9 8 7 6 5 5 5 6 7 9 10 12 13 14 15 16 16 17 18 19 20 21 22 23 24 24 25
13 13 12 11 10 9 9 7 7 7 5 6 9 12 14 16 17 14 12 10 9 9 8 7 6 5 4 4 4 5 6 8 9 11 12 12 13 15 16 17 19 20 21 23 24 26 27 27 28
13 13 11 10 9 8 7 5 4 3 2 5 8 11 12 15 14 11 9 8 9 10 9 8 7 6 5 5 5 5 6 7 7 8 9 10 11 13 15 16 18 19 21 23 24 26 27 28 29
13 12 10 9 9 8 7 5 2 1 5 6 8 10 12 12 12 10 10 10 11 12 11 10 9 8 7 6 5 5 5 5 6 7 8 9 10 12 14 15 16 17 19 20 22 23 25 26 27
14 12 10 9 9 7 7 4 0 4 7 8 8 10 12 11 12 13 13 14 14 14 13 12 10 8 8 7 6 6 6 7 7 8 9 10 11 12 13 14 15 16 18 19 21 23 24 26 27
14 12 10 9 8 8 8 4 1 4 7 8 9 10 11 13 15 16 17 17 16 15 12 12 11 10 10 9 8 8 9 10 11 12 13 14 14 15 16 16 16 17 18 19 20 22 23 25 26
13 13 11 11 11 11 9 5 2 4 7 8 9 11 12 14 16 18 19 18 16 14 12 12 11 10 10 10 10 11 12 13 14 15 16 17 18 19 19 19 19 19 19 20 21 22 23 25 26
12 14 12 12 13 12 11 7 4 5 7 10 12 14 16 17 18 18 18 18 16 14 12 12 11 11 10 11 12 13 14 15 16 17 17 18 18 19 20 21 21 21 21 21 23 24 25 27 28
13 13 11 12 13 14 12 9 8 8 9 11 14 16 18 19 19 18 18 18 16 15 14 13 12 12 11 11 12 13 14 15 17 18 18 18 19 20 21 22 23 23 23 23 24 24 25 26 28
14 14 12 13 14 15 15 14 12 11 12 14 15 18 20 20 19 17 17 18 17 15 15 15 13 13 14 13 13 13 15 16 17 18 19 20 21 22 23 24 24 24 25 25 24 25 25 26 28
18 18 16 15 16 17 18 18 16 15 15 16 18 20 22 22 20 18 17 17 18 17 16 16 15 14 14 14 14 15 15 17 18 20 21 22 23 24 25 25 26 26 26 27 28 28 29 30 31
22 21 18 17 19 20 20 21 18 17 19 20 21 22 24 24 21 19 19 18 18 18 18 17 16 16 15 16 16 16 17 18 20 21 23 25 25 25 25 26 27 28 29 30 31 32 33 33 35
26 23 21 21 22 23 23 22 21 20 23 23 24 25 26 25 21 20 21 20 20 20 19 19 18 17 17 17 17 17 19 21 21 22 23 24 25 25 26 27 28 30 30 32 33 34 35 36 37
28 26 23 25 26 27 26 26 26 25 25 26 27 27 27 25 21 21 22 22 22 22 22 21 20 19 19 18 18 17 18 20 20 21 22 23 24 26 27 29 30 31 33 34 36 37 39 40 41
30 28 27 28 28 29 28 28 28 29 30 30 30 30 28 24 21 21 23 24 25 24 23 22 21 21 21 20 19 19 19 20 21 22 23 25 27 28 30 32 33 35 36 38 40 41 43 45 46
32 31 30 31 30 29 30 29 30 32 33 33 32 31 28 22 20 21 24 26 27 26 24 23 23 23 23 22 22 22 22 24 25 26 27 28 30 32 33 35 37 39 41 42 44 45 47 48 50
34 33 31 30 32 32 33 32 31 32 33 33 32 30 25 21 21 22 25 27 28 26 25 24 25 26 26 25 25 26 27 29 30 31 31 32 34 35 38 40 42 44 46 47 49 50 52 53 54
36 36 33 30 32 36 36 36 34 34 34 33 31 28 24 22 22 24 27 29 28 26 26 27 28 29 29 29 30 31 33 34 35 36 36 37 38 40 42 44 47 48 50 52 53 54 55 56 57
38 38 35 32 34 39 39 40 38 36 34 33 31 29 26 24 24 26 28 29 28 28 28 30 32 33 34 35 35 36 38 39 40 40 41 41 43 45 48 50 52 53 55 56 56 57 58 59 58
40 39 37 35 37 42 43 43 41 39 37 34 31 29 26 25 26 28 31 31 31 31 32 34 37 38 40 41 41 41 42 42 43 44 45 46 48 50 53 56 57 58 58 59 60 60 61 60 58
40 38 38 37 39 42 45 47 44 42 41 37 32 28 26 26 28 31 32 33 33 34 35 37 40 42 44 45 45 44 44 45 46 47 48 49 52 55 58 61 61 61 61 61 62 63 62 59 56
38 37 39 40 42 45 46 50 48 45 42 37 33 30 29 30 31 33 34 35 35 36 38 40 43 45 46 47 47 46 46 48 48 48 50 52 55 59 63 65 64 63 63 63 63 61 57 53 50
37 38 41 42 43 47 45 49 51 46 42 38 35 33 33 33 34 36 36 37 37 38 40 43 45 47 49 48 48 47 47 49 49 50 52 55 59 64 67 66 64 63 63 61 57 53 48 44 42
36 36 39 42 44 45 42 46 49 45 42 39 37 37 37 37 37 38 39 39 39 40 42 44 45 48 48 49 48 48 49 50 50 51 54 58 63 66 66 63 62 61 58 53 48 43 40 39 40
33 35 37 40 42 41 41 44 43 41 40 39 39 39 38 38 38 39 39 38 39 40 42 43 45 47 48 48 48 50 50 51 51 52 56 60 63 64 62 60 58 54 50 46 42 40 39 39 41
31 33 34 38 41 43 43 43 41 39 38 37 36 35 34 34 34 35 35 35 36 39 42 45 46 48 49 50 50 52 51 51 51 54 58 61 62 60 58 56 52 49 46 43 41 41 41 42 45
29 31 35 38 40 43 44 43 40 37 35 34 33 32 33 34 35 35 35 36 37 40 43 46 49 51 52 53 54 52 51 50 52 56 58 59 58 56 54 51 49 46 44 43 43 44 45 48 51
26 30 34 38 41 44 46 44 38 35 33 33 32 32 33 34 35 37 38 38 40 42 45 48 51 53 55 55 52 49 49 50 52 55 56 55 54 52 50 48 46 45 44 45 46 49 51 54 57
29 31 34 37 40 43 47 45 38 36 35 34 34 34 35 35 35 36 38 41 43 45 48 51 54 55 54 51 49 47 49 51 53 53 52 52 51 49 48 46 45 45 46 48 51 54 56 59 61

GEFSSGP_500_meanwind_024.txt.gz
Wind_Speed
16 17 18 17 16 15 13 12 10 9 8 8 8 8 8 8 8 7 7 7 6 6 5 6 6 6 6 6 7 9 10 11 11 11 11 11 11 10 10 11 11 12 12 13 14 14 15 16 17
14 15 14 14 13 10 12 13 11 10 9 9 9 9 8 9 9 9 8 7 6 6 6 6 5 4 4 4 5 6 7 9 9 9 10 10 10 10 10 11 11 12 13 14 15 15 16 17 18
12 12 11 10 10 10 11 12 11 10 9 8 8 7 8 8 9 9 9 8 7 6 6 6 5 4 3 3 4 4 6 7 8 8 8 9 9 9 10 10 11 12 13 14 15 16 17 18 19
10 10 9 9 9 11 11 10 9 8 8 7 6 5 7 8 9 9 9 8 7 6 6 5 4 3 1 1 2 3 4 5 6 6 6 6 7 8 9 10 11 12 13 14 15 16 17 18 19
9 9 10 10 10 10 10 9 8 7 7 5 3 3 6 8 9 9 9 8 6 6 6 5 3 2 1 1 2 3 3 4 5 5 6 6 7 8 10 11 12 13 14 15 16 17 18 19 20
9 10 12 11 11 11 10 9 7 7 5 3 1 3 6 8 10 10 9 8 6 5 4 3 2 2 1 2 3 3 4 4 5 6 7 8 9 10 11 13 14 15 16 16 17 18 18 20 21
9 12 14 14 13 12 10 9 9 7 5 3 0 3 6 9 10 10 10 9 7 5 4 3 2 2 3 3 4 5 6 7 8 9 10 10 11 12 13 14 15 15 16 17 17 18 20 21 22
9 12 14 15 14 12 10 9 9 8 6 4 0 3 7 9 11 11 11 9 8 6 5 3 3 4 5 5 6 8 8 9 10 11 12 12 13 14 14 14 15 15 16 17 18 19 21 22 24
9 12 14 16 15 13 10 9 7 7 6 4 2 4 7 10 11 12 12 10 9 8 7 5 5 5 6 7 8 9 10 11 12 13 13 14 14 14 14 15 16 17 18 18 19 20 21 23 24
11 13 16 15 15 13 11 9 7 7 7 6 5 5 7 10 12 13 12 12 11 10 9 7 7 7 7 8 8 10 11 12 13 14 15 15 15 15 16 17 18 18 19 19 19 20 21 22 22
12 14 14 15 15 14 12 10 8 8 7 6 6 6 7 10 12 12 13 12 12 11 10 10 9 9 9 10 10 11 12 13 14 15 15 16 16 16 18 18 18 18 18 18 19 20 21 22 23
15 15 15 15 15 15 14 12 11 9 7 8 9 8 9 10 12 13 14 13 13 12 11 11 11 11 11 11 11 11 12 13 14 15 15 16 15 16 17 17 17 17 18 19 20 21 22 24 25
19 19 18 18 17 17 16 14 14 13 11 11 11 11 11 12 13 14 15 15 15 14 13 13 13 12 12 11 11 11 11 12 13 14 14 14 14 15 15 15 16 17 18 20 22 24 26 28 30
24 22 22 21 20 19 18 18 18 18 15 14 14 13 13 14 15 16 16 17 16 16 15 15 14 14 13 11 10 10 10 11 12 13 13 13 13 14 14 15 17 18 20 22 24 26 29 31 33
27 26 25 26 25 23 21 22 23 22 20 18 17 17 17 17 19 19 19 19 19 18 17 17 17 16 14 12 11 10 10 11 12 13 14 15 15 15 16 16 17 19 20 23 25 28 31 34 37
30 29 30 31 30 28 25 23 28 26 24 22 21 20 21 21 22 23 23 22 21 21 20 20 19 18 17 15 13 12 12 13 15 17 18 19 19 19 20 20 21 23 24 26 29 32 35 38 40
32 33 33 34 35 33 30 28 34 29 29 27 25 24 24 26 27 27 26 25 24 23 23 22 22 21 20 18 16 16 15 16 19 20 22 23 24 25 25 25 27 28 30 32 35 38 40 43 45
35 37 38 38 39 37 37 37 38 35 34 33 31 29 28 29 30 31 29 28 27 27 26 25 25 25 24 22 20 19 19 20 22 23 25 26 28 29 30 31 32 34 36 38 40 43 45 47 49
38 37 39 41 43 40 42 43 42 40 38 37 36 34 32 32 32 32 31 31 31 30 30 29 30 30 29 27 25 23 22 23 25 27 28 30 31 32 33 35 37 38 40 42 45 47 49 51 52
36 37 38 40 42 43 47 48 46 44 42 41 40 38 36 35 33 31 31 33 33 34 34 34 34 35 34 31 29 27 26 27 28 30 32 33 35 36 37 39 41 42 44 46 48 50 52 54 55
34 35 36 38 41 43 47 48 47 48 46 45 43 41 40 38 35 32 33 35 35 36 37 37 37 38 37 35 34 32 32 33 32 33 35 36 38 39 41 43 45 47 49 50 51 52 54 57 58
34 35 36 38 39 41 45 48 43 46 45 44 43 42 41 40 37 35 35 36 37 38 39 39 39 39 40 39 38 36 37 37 38 39 41 42 43 44 46 47 48 49 51 53 54 55 57 58 59
34 36 37 38 40 42 45 47 42 45 45 40 39 40 40 40 39 38 37 37 39 40 41 42 42 42 42 42 40 40 41 41 42 44 46 48 49 50 50 51 52 53 54 54 56 57 58 59 59
31 34 36 38 40 44 43 44 43 38 43 38 37 38 38 39 40 40 39 40 41 42 44 45 44 44 44 44 43 43 44 44 47 49 50 52 52 53 53 53 54 54 54 55 57 58 59 59 59
29 30 32 34 36 38 36 41 40 38 39 37 36 36 35 36 36 37 38 39 41 43 44 45 45 45 45 44 44 44 46 47 49 51 52 54 54 53 52 52 53 54 54 56 58 58 59 59 59
30 30 31 32 28 27 29 35 32 35 35 33 32 32 32 31 32 33 35 36 37 39 41 42 42 43 43 43 44 45 47 48 50 52 52 52 51 51 51 52 53 53 55 57 57 58 58 58 58
29 30 31 33 34 35 33 32 33 34 32 30 29 29 30 30 31 31 32 32 32 34 36 38 39 41 41 43 44 45 46 48 49 50 50 50 50 52 52 53 54 56 56 57 56 57 57 58 58
28 28 30 32 33 34 33 30 27 25 24 25 26 26 27 27 28 28 28 29 30 32 34 36 38 39 40 41 42 44 45 47 48 50 51 52 53 53 53 54 55 55 56 55 56 56 57 57 58
29 29 30 30 30 30 29 25 24 27 27 25 25 25 25 25 26 27 28 29 30 31 33 36 37 38 39 41 43 45 48 50 51 52 52 53 54 53 53 53 54 54 55 55 56 56 57 58 58
31 31 30 30 30 30 30 27 27 31 30 28 27 28 28 27 28 29 30 31 32 33 35 36 37 39 41 43 46 48 50 52 53 53 54 54 53 53 52 52 53 54 55 55 56 56 57 58 59

GEFSSGP_500_meanwind_030.txt.gz
Wind_Speed
19 18 16 13 10 6 2 1 8 14 17 15 13 15 17 15 15 15 15 13 10 10 9 9 10 10 11 11 11 11 11 12 13 14 15 16 16 16 16 15 15 14 14 14 15 15 15 16 16
21 19 17 14 12 6 2 4 14 22 19 10 11 15 16 13 13 13 12 10 8 8 7 8 8 8 7 8 8 8 8 9 10 11 12 13 14 14 14 14 14 14 14 15 15 15 16 16 17
19 17 15 14 12 5 3 7 19 22 15 12 15 13 12 10 10 10 9 7 6 6 7 7 7 7 7 7 8 8 8 8 8 9 10 11 11 12 12 12 12 12 13 13 14 14 15 16 16
14 14 13 12 9 3 4 11 19 18 12 12 14 12 9 9 9 8 7 6 6 6 7 7 7 7 7 7 7 7 7 8 8 8 9 9 9 9 9 10 10 11 11 12 13 13 14 15 16
11 11 12 12 8 6 9 12 15 14 10 9 12 11 10 10 9 8 7 6 6 6 7 7 7 7 6 6 6 6 7 8 8 9 9 9 9 9 10 10 10 11 12 12 13 14 15 15 16
11 12 14 10 4 6 12 15 14 12 8 6 9 11 10 10 10 8 7 7 6 6 7 7 7 7 6 6 6 7 7 8 9 10 10 11 11 11 11 12 12 13 13 14 14 15 16 17 17
12 16 15 8 5 9 13 13 11 8 7 4 7 12 11 12 10 9 8 7 6 6 7 7 7 7 7 8 8 8 9 10 10 11 12 12 13 13 13 14 14 14 14 15 15 16 17 17 18
12 14 15 11 8 10 12 11 10 8 7 5 8 14 12 13 12 11 10 8 7 7 7 7 7 8 8 9 9 10 10 11 12 12 13 13 14 14 14 14 14 14 14 15 15 16 17 18 18
12 13 13 10 5 10 12 10 10 8 9 6 10 13 12 12 12 12 11 11 9 8 7 7 8 8 9 10 10 10 11 11 12 12 13 13 13 13 13 13 13 13 14 15 15 16 16 16 17
12 15 12 6 9 13 12 11 10 10 10 9 12 12 8 11 12 12 12 12 11 11 9 8 9 10 10 11 12 12 12 12 13 13 13 13 13 13 13 13 14 14 14 14 14 14 14 14 15
13 16 14 11 16 17 14 13 14 12 11 13 16 13 9 10 12 13 13 13 13 13 12 12 12 12 12 13 14 14 14 14 13 13 13 13 13 12 12 13 13 13 13 14 14 14 14 15 15
15 19 16 14 19 23 19 15 15 14 16 18 22 20 10 12 13 14 14 14 14 14 15 15 15 16 16 16 16 16 16 15 14 14 14 14 14 13 13 13 14 14 14 15 15 16 16 17 19
17 19 19 17 19 20 21 19 17 16 17 21 24 22 14 14 15 15 16 16 16 16 17 18 18 18 19 19 18 18 18 17 16 16 15 15 14 14 15 15 16 16 16 17 18 19 19 20 21
20 21 22 21 20 20 21 20 20 17 17 22 24 24 19 19 19 19 18 17 18 18 19 20 20 21 21 21 21 21 20 20 19 18 18 18 16 17 17 17 18 19 20 21 22 22 23 24 25
24 24 24 22 21 21 21 22 20 16 18 23 25 22 21 23 24 23 21 19 20 20 21 23 22 23 23 24 24 24 24 24 23 22 21 21 20 20 21 21 21 22 23 24 26 28 28 30 31
27 27 26 23 23 22 22 23 17 16 20 25 26 22 26 26 27 28 26 23 23 22 22 25 25 25 26 27 28 28 28 28 28 27 26 26 25 24 24 24 25 27 27 28 30 32 33 36 37
28 28 27 25 24 22 23 24 16 18 25 29 28 26 27 28 29 31 31 27 26 25 25 27 29 28 30 30 31 32 33 33 33 32 31 30 29 29 28 27 28 30 31 32 34 36 38 40 42
25 25 24 23 20 22 25 26 20 22 29 30 30 29 29 29 30 34 35 34 30 29 28 29 32 31 32 34 35 36 37 38 38 37 38 35 33 32 31 30 31 33 34 36 37 39 42 44 46
25 24 21 19 18 22 29 32 29 26 29 32 33 31 31 31 32 35 39 39 34 32 30 31 34 34 35 36 38 40 41 42 42 40 40 38 35 34 34 33 34 36 39 40 41 43 45 48 50
26 29 28 26 24 25 29 34 36 33 31 32 35 35 33 33 36 38 42 43 39 34 34 34 36 37 38 39 41 43 44 45 44 43 42 40 36 35 35 37 38 39 41 43 44 46 48 50 53
28 29 29 29 29 31 33 36 39 40 36 36 38 40 38 36 38 41 44 45 43 41 39 38 38 39 40 41 43 45 47 47 46 45 43 41 40 38 38 39 41 42 44 45 47 48 50 52 54
27 27 28 30 32 33 34 37 37 38 35 34 35 38 39 37 38 42 45 46 44 43 41 41 40 39 40 42 45 46 47 48 48 47 45 43 42 41 40 41 42 45 46 46 47 48 51 52 54
23 23 25 26 29 33 35 38 37 33 31 31 31 33 37 39 39 41 43 44 43 42 42 41 40 40 42 44 45 46 47 48 47 47 46 45 44 43 42 42 44 45 46 47 49 51 53 55 56
19 21 23 24 26 30 28 30 33 29 29 28 27 28 34 38 39 41 40 38 38 40 40 40 40 41 43 44 46 46 47 48 47 47 47 46 46 45 44 45 46 48 49 50 51 53 55 57 59
18 18 19 20 21 22 17 21 23 19 20 24 26 29 34 38 39 40 37 36 37 38 38 39 40 42 43 44 46 47 47 48 48 48 48 47 48 46 46 46 49 51 53 53 54 56 58 60 60
19 19 19 18 17 16 15 16 15 16 20 25 28 32 35 38 38 38 37 36 36 36 37 38 39 41 42 44 45 46 47 47 48 48 48 48 48 48 48 50 52 54 56 56 57 58 59 60 60
21 22 19 20 21 23 23 22 19 19 23 28 30 30 30 31 32 33 33 33 34 35 36 38 39 40 41 42 43 45 46 46 46 48 48 47 48 50 51 53 56 57 58 58 58 59 60 61 60
23 21 22 24 24 25 24 21 20 22 23 23 25 26 27 26 27 28 28 30 32 34 35 36 38 39 40 42 43 45 46 46 46 46 46 48 50 52 55 57 58 58 58 58 59 60 61 61 61
24 23 24 25 25 24 24 20 17 23 24 25 26 26 28 29 33 32 30 30 32 34 36 37 38 39 41 42 44 45 46 46 47 48 49 51 53 55 57 58 59 59 58 59 60 61 62 62 62
25 24 23 26 27 27 28 26 23 28 30 30 31 34 36 38 37 35 31 30 32 34 36 37 39 40 42 43 45 46 47 48 50 52 53 54 55 57 58 60 60 60 61 62 61 61 62 62 63

GEFSSGP_500_meanwind_036.txt.gz
Wind_Speed
19 17 15 13 13 11 8 6 5 6 7 11 15 18 21 19 15 13 11 11 10 9 8 7 7 8 8 8 9 10 12 14 15 17 19 19 20 20 20 20 20 20 20 20 20 20 20 20 20
20 18 15 14 14 13 11 9 6 7 10 12 15 17 18 16 12 11 9 8 8 7 6 6 6 6 6 6 6 7 8 9 11 13 15 16 17 18 19 19 20 20 20 21 21 20 20 20 20
20 18 16 15 16 14 12 11 7 6 10 12 14 14 14 10 8 7 7 6 5 5 4 4 5 5 5 5 5 6 7 7 8 9 11 13 15 16 17 18 18 19 20 20 20 20 19 19 19
17 16 15 16 17 16 13 11 6 6 8 11 13 13 9 6 6 6 7 6 5 4 4 4 4 4 4 4 4 5 5 6 7 8 9 11 12 14 15 16 17 17 18 18 18 17 17 18 18
14 15 16 17 18 17 15 11 7 5 9 11 12 10 7 5 6 7 8 7 6 5 5 4 4 4 4 4 4 5 5 6 6 7 8 9 10 12 13 14 15 15 16 16 17 17 17 17 18
13 15 18 20 22 20 16 11 6 6 10 13 12 9 6 5 7 8 8 8 6 5 5 4 4 4 4 5 5 6 6 6 7 8 9 10 11 12 13 14 15 16 16 17 17 18 18 18 18
14 16 20 23 23 19 14 9 5 8 13 14 12 8 5 6 8 10 9 9 8 7 6 5 4 4 5 5 6 6 6 7 8 9 10 11 12 13 14 15 16 17 17 18 18 18 18 18 18
15 19 23 23 23 19 14 9 7 10 14 14 10 7 6 6 8 10 10 9 8 7 6 5 5 5 5 5 6 6 7 7 8 9 10 12 13 13 14 15 16 17 17 18 18 18 18 18 19
16 21 24 24 23 19 15 11 10 13 15 14 10 7 4 5 7 9 10 9 8 8 7 6 6 5 5 6 6 7 7 8 9 9 10 12 12 13 14 15 16 16 17 17 17 18 18 19 20
17 24 25 23 22 19 16 13 12 13 14 13 10 6 5 6 6 7 9 10 10 9 8 7 7 6 6 6 7 7 8 9 9 10 10 11 12 12 13 14 14 15 16 16 17 17 18 19 20
20 25 24 23 22 19 16 12 12 15 15 13 11 9 8 8 7 7 9 10 10 10 10 9 8 8 7 7 8 8 9 10 10 10 11 11 12 12 13 13 14 15 15 16 16 17 18 19 20
22 26 25 24 21 18 14 13 14 17 17 15 13 13 11 10 11 11 11 11 10 10 11 10 10 10 9 9 9 9 10 10 10 11 12 12 13 14 15 15 15 16 17 17 17 17 19 20 21
23 27 26 24 21 18 16 16 18 19 19 17 15 14 15 14 15 14 13 14 12 11 12 11 12 12 12 12 11 11 12 12 13 13 13 14 16 17 18 18 18 18 19 20 20 20 21 22 24
24 28 28 26 23 21 19 20 21 22 23 21 19 18 17 17 17 17 16 18 17 15 13 13 14 15 14 13 14 14 14 15 16 16 17 17 17 19 20 21 22 22 23 24 24 24 25 26 27
28 29 27 25 24 22 21 21 22 24 25 24 23 22 21 20 20 19 21 22 21 20 17 15 15 17 17 16 16 16 17 17 19 20 20 21 21 22 23 24 25 26 26 27 28 28 29 30 31
31 30 27 25 24 22 23 21 21 25 27 26 25 24 23 24 25 24 25 25 26 24 21 19 20 21 22 23 20 19 20 21 22 23 24 25 25 25 26 28 28 29 29 30 31 32 33 34 35
32 30 27 25 24 23 24 20 20 25 28 27 26 26 26 27 28 29 29 30 29 28 26 25 26 24 26 28 25 25 25 25 26 27 28 29 30 30 30 31 32 32 32 32 33 35 37 38 39
30 30 29 27 25 26 26 23 20 24 27 28 27 27 28 30 31 33 35 34 33 31 29 28 28 29 31 32 32 32 30 29 30 31 31 33 33 34 35 35 34 34 34 34 34 36 39 41 42
31 32 32 29 29 31 29 26 24 25 28 29 28 29 30 32 33 36 37 36 34 33 33 33 32 33 34 36 37 37 36 34 33 34 35 36 37 37 39 39 37 37 35 35 36 37 40 42 44
33 34 32 29 30 32 33 31 28 27 27 28 29 30 32 33 35 36 37 37 38 37 35 35 36 37 36 36 39 40 39 37 37 37 37 38 39 40 40 40 39 37 37 37 37 39 41 44 45
31 31 30 29 29 33 35 33 29 27 26 27 29 32 34 35 35 37 38 38 37 37 35 36 38 39 39 40 42 41 41 40 38 38 38 39 41 41 42 42 41 39 38 39 40 42 43 45 46
28 27 27 29 30 32 33 34 29 27 28 29 30 32 34 35 37 36 36 36 36 36 36 38 40 41 43 44 43 44 41 39 39 39 40 41 42 43 43 43 41 41 41 42 43 44 45 46 48
27 25 26 28 30 32 32 34 29 28 32 33 33 34 35 36 36 35 34 34 35 36 37 39 41 44 45 44 45 43 40 39 39 40 41 41 43 44 44 44 44 44 45 45 46 47 47 48 50
24 24 25 28 30 29 25 30 27 23 29 33 36 37 37 37 36 35 33 33 34 36 39 42 44 46 46 45 44 43 41 40 40 41 42 43 44 45 45 46 46 47 47 47 48 48 49 51 53
23 23 24 26 26 20 17 22 19 19 24 28 31 32 33 32 32 31 30 32 34 38 42 45 48 48 47 44 44 44 43 42 42 43 44 45 46 46 47 47 48 48 48 49 49 50 52 54 56
21 22 22 22 20 16 17 17 14 17 21 23 25 25 25 26 27 29 31 33 36 40 43 46 47 47 47 46 45 44 44 44 44 45 47 48 48 49 49 50 50 50 50 51 52 54 55 57 59
18 19 18 20 19 18 19 18 16 18 21 22 22 23 24 26 29 31 33 36 39 42 44 45 45 45 46 43 42 43 44 45 47 49 50 50 51 52 52 52 52 52 53 55 56 57 58 60 61
21 18 19 21 21 21 20 20 21 24 25 25 26 27 28 31 33 35 37 39 41 43 46 45 42 41 40 40 41 43 45 47 50 51 52 53 54 55 55 56 56 58 58 59 60 60 61 61 62
23 23 24 22 22 22 22 22 24 26 28 30 31 32 33 35 36 38 39 40 42 44 45 44 43 41 38 39 41 45 47 50 52 54 55 56 57 58 59 60 61 61 62 62 62 62 62 63 63
25 25 25 26 25 23 24 26 27 29 30 31 32 33 34 36 37 39 39 41 43 44 45 44 42 39 38 41 44 47 50 53 55 57 58 60 61 62 63 63 64 64 63 63 63 62 62 63 63

GEFSSGP_500_meanwind_042.txt.gz
Wind_Speed
19 18 17 16 15 13 11 10 7 5 5 5 6 7 8 9 9 9 7 5 5 5 6 7 7 7 6 6 5 5 5 6 7 7 8 9 10 11 13 14 15 15 16 17 17 18 18 18 18
20 19 18 18 16 14 13 12 9 7 6 6 6 7 8 10 10 9 7 5 4 4 5 5 6 6 5 4 3 3 3 4 4 5 6 7 7 9 10 11 13 14 15 16 17 17 17 17 17
21 20 20 19 17 16 16 13 10 8 6 5 6 7 8 10 10 9 7 6 5 4 4 4 5 4 4 3 3 3 3 3 3 4 4 5 6 8 9 10 12 13 14 15 16 16 16 16 16
20 20 20 19 18 17 17 15 13 10 6 4 5 6 8 9 8 7 7 6 6 4 4 4 4 3 3 3 3 3 3 3 3 4 4 5 6 7 8 9 10 12 13 14 15 16 15 15 15
18 19 19 19 19 19 19 17 14 11 6 3 3 5 7 7 7 6 6 6 6 6 5 5 4 4 3 3 3 2 2 3 3 4 4 5 6 7 8 9 11 12 13 14 15 16 16 16 15
17 16 17 19 21 21 21 19 15 11 7 3 2 4 7 7 7 5 5 6 6 7 7 6 6 5 5 4 4 3 3 3 3 4 4 5 6 7 9 10 11 13 14 15 16 17 17 17 16
15 16 17 21 24 24 24 21 17 12 8 4 0 3 6 7 6 5 6 6 7 8 8 8 8 7 6 6 5 4 4 4 4 4 5 6 6 8 9 10 12 13 14 15 16 17 18 18 17
14 16 20 24 26 27 26 23 18 14 11 6 2 3 5 6 5 5 6 7 9 9 10 10 10 9 8 8 7 6 5 5 5 5 6 6 7 8 9 10 11 12 13 14 15 16 17 17 17
14 17 22 26 28 29 27 24 19 16 13 7 4 4 5 5 5 5 7 8 10 11 11 12 11 11 10 10 9 8 7 6 6 6 6 6 7 7 8 9 10 11 12 13 15 15 16 16 16
14 18 24 28 30 30 27 24 20 17 13 8 5 3 3 3 4 4 6 8 9 10 12 13 12 12 12 11 10 10 9 8 7 7 7 7 7 7 8 9 10 11 12 13 14 15 16 16 16
15 21 27 30 31 30 28 24 20 18 15 10 8 5 2 1 2 3 4 6 8 10 11 12 13 13 12 12 11 11 11 10 9 9 9 9 9 9 9 10 11 12 13 14 15 16 17 18 18
18 24 28 30 30 29 27 24 21 19 17 13 11 7 5 4 4 5 5 6 7 9 11 12 13 15 14 14 13 12 12 12 12 11 11 10 11 11 11 12 13 13 14 15 17 18 20 21 21
21 27 29 29 28 27 26 24 21 19 16 15 12 10 8 7 8 8 7 8 8 9 11 13 15 16 17 16 16 15 15 15 15 14 14 13 13 14 14 14 15 16 17 17 19 20 22 23 25
25 29 29 28 28 27 26 24 21 20 18 17 15 12 10 10 10 10 9 10 11 11 12 14 16 18 19 19 19 19 18 18 18 18 18 17 17 17 17 17 17 18 19 21 22 23 25 25 27
28 29 29 29 28 28 26 24 23 22 20 19 17 16 15 13 13 12 12 12 13 14 15 15 18 19 21 21 22 22 22 21 22 22 22 22 22 21 21 21 20 21 22 23 24 26 28 29 29
29 30 30 30 31 30 28 26 25 24 22 20 19 18 18 17 16 15 15 15 15 15 16 17 20 21 22 24 25 26 26 26 26 26 26 27 28 27 25 25 24 24 25 25 27 29 31 31 31
31 31 31 32 32 32 30 27 27 27 25 23 22 22 22 21 21 19 17 17 17 17 18 20 22 23 25 27 28 29 30 29 29 30 30 31 31 30 29 28 27 28 28 28 29 30 31 32 33
32 32 32 33 34 34 33 29 29 31 29 27 26 26 25 24 23 22 21 19 19 19 20 22 24 25 27 29 30 32 32 32 32 33 32 32 32 31 30 30 29 29 29 30 31 32 32 33 35
34 34 34 34 37 38 37 34 32 32 33 32 31 30 29 27 25 25 24 22 22 22 23 24 25 27 29 31 33 35 36 35 36 36 36 34 31 31 30 30 30 30 31 32 32 32 33 33 34
35 35 34 35 39 42 42 39 35 34 35 34 34 33 31 29 29 28 26 25 24 24 24 25 27 28 30 33 36 39 40 39 40 39 37 33 30 30 29 29 29 30 31 32 33 34 34 35 37
35 35 33 34 39 43 43 42 39 37 36 35 34 34 33 32 31 29 28 27 25 25 26 27 28 31 34 37 39 41 42 42 43 39 36 33 30 28 27 27 29 30 32 34 35 36 37 39 40
34 32 32 34 38 41 43 43 39 38 37 35 35 34 34 33 32 31 30 28 27 27 28 30 32 35 37 39 41 43 44 46 43 38 36 33 30 29 28 29 30 32 34 35 37 39 41 42 43
31 31 33 35 37 39 40 41 38 36 36 35 35 35 35 34 33 31 31 30 30 31 32 35 37 38 39 41 43 45 47 48 43 39 35 33 32 30 30 31 32 34 36 38 41 43 44 46 47
32 33 34 35 36 37 36 38 38 35 35 34 36 36 36 35 34 33 33 33 33 34 36 38 40 40 41 43 45 46 46 44 42 39 36 34 32 32 32 34 36 38 40 43 45 47 49 50 51
33 33 34 34 35 33 32 35 36 34 34 34 35 36 36 35 34 33 34 35 36 37 38 40 41 42 43 44 45 46 45 44 42 40 39 37 37 36 37 39 41 43 45 47 50 51 53 54 56
31 32 33 32 31 29 30 33 33 33 33 33 33 34 34 34 33 33 34 35 36 36 38 39 40 42 43 44 44 43 43 43 43 43 43 42 41 42 43 44 46 48 51 53 54 56 57 59 61
30 31 30 30 28 28 29 31 32 31 30 31 31 32 32 32 32 32 33 33 34 34 36 38 39 41 42 43 44 46 46 45 46 47 47 46 46 47 48 50 52 54 56 57 59 60 62 63 63
31 31 30 30 28 27 28 28 28 28 28 29 30 30 30 30 30 30 31 32 33 34 35 37 39 41 43 45 46 47 48 48 48 49 50 50 51 51 53 56 58 59 60 61 62 63 64 63 64
32 31 31 30 28 27 27 26 26 27 28 28 29 29 29 30 31 32 33 34 35 36 37 39 41 43 46 47 49 49 51 52 52 53 54 54 55 57 58 60 61 62 62 63 63 63 64 64 64
32 32 31 30 28 27 26 26 26 27 28 29 29 30 31 32 32 33 34 36 37 38 40 42 44 46 48 49 51 52 54 55 56 57 57 58 59 59 61 62 62 63 63 63 62 62 62 63 63

GEFSSGP_500_meanwind_048.txt.gz
Wind_Speed
23 22 20 18 15 12 10 11 10 7 6 4 5 5 4 4 4 4 4 3 2 2 2 3 3 3 3 4 5 6 6 7 7 7 7 7 7 7 7 8 7 7 8 8 8 8 8 9 9
23 23 22 20 18 13 12 14 11 9 6 5 5 4 3 3 2 2 1 1 1 2 1 2 1 1 2 2 3 4 4 5 5 5 5 5 5 6 6 7 7 7 7 7 7 8 8 9 10
22 23 23 23 22 18 16 17 13 9 6 4 4 3 2 2 2 2 2 3 3 3 3 3 3 2 1 1 2 3 3 3 4 4 5 5 5 6 6 7 7 7 7 7 7 8 8 9 10
21 22 23 23 23 21 21 19 15 10 7 4 3 3 1 1 2 3 4 4 4 5 5 4 4 3 2 1 1 2 2 3 4 4 5 5 6 6 7 7 7 7 7 7 8 8 9 10 10
20 21 22 22 23 23 23 21 16 12 8 5 4 3 2 2 4 4 5 5 6 7 7 6 5 4 3 2 1 1 2 2 3 4 5 6 6 7 8 8 8 8 8 9 9 10 10 11 11
17 18 19 20 23 25 24 21 17 12 9 7 5 4 3 3 4 5 6 7 7 8 8 7 6 6 4 3 3 2 2 2 3 4 5 6 7 8 8 9 9 9 10 10 10 11 11 12 12
14 16 16 20 24 26 25 21 17 13 11 9 6 5 4 4 5 6 6 6 7 8 9 9 8 7 6 5 4 4 3 4 4 5 5 6 7 8 9 10 10 10 11 11 11 11 12 12 13
12 13 16 20 25 26 25 21 17 15 13 11 8 6 6 6 6 6 6 6 7 9 9 9 8 8 7 6 6 5 5 5 5 6 7 7 8 9 10 11 11 11 11 12 12 12 13 13 14
13 13 15 21 25 26 24 21 18 15 14 12 10 8 8 8 8 7 7 7 8 8 8 8 7 7 7 7 7 6 6 6 7 7 8 9 9 10 11 12 12 12 12 12 13 13 13 13 14
13 13 17 23 25 26 24 21 18 17 15 12 12 11 10 9 9 8 7 7 6 6 6 6 5 6 6 6 7 7 8 8 8 9 10 11 11 12 13 13 14 14 14 14 14 14 14 15 15
15 15 19 23 24 24 24 21 18 17 15 14 13 13 11 10 10 8 6 4 3 3 3 4 4 5 6 7 8 9 9 10 10 11 12 13 14 14 15 16 16 16 16 16 16 16 17 17 17
17 18 20 22 22 23 23 20 18 17 17 16 15 14 12 11 10 8 7 4 2 0 1 3 5 6 8 9 9 11 11 11 12 13 14 16 16 17 18 18 19 19 19 19 19 19 19 19 20
21 20 21 22 21 22 21 20 18 17 18 17 15 14 14 13 11 10 8 6 4 3 4 5 7 8 10 11 11 13 13 14 15 16 17 18 19 20 21 22 22 22 22 22 22 22 22 22 22
23 22 22 21 21 21 21 20 19 18 18 17 15 14 15 15 14 12 10 8 7 7 7 8 9 10 11 12 13 15 15 17 18 19 21 22 23 24 25 27 27 27 26 25 25 25 25 25 25
25 24 23 22 21 22 20 20 19 20 18 18 16 15 14 16 16 14 13 12 10 10 10 11 11 12 13 14 15 17 18 19 21 23 25 26 27 28 29 31 31 32 31 30 29 29 29 29 29
26 26 25 24 23 22 22 20 22 21 20 20 18 17 15 16 17 17 17 15 14 14 13 14 14 14 15 17 18 19 20 22 24 26 27 29 31 33 34 35 36 36 35 35 33 32 32 32 31
28 27 27 27 25 24 23 23 25 21 21 21 20 19 18 18 17 18 18 18 17 17 17 17 17 17 19 20 21 22 24 26 28 30 32 32 33 35 36 37 38 38 38 38 37 36 34 33 33
29 29 29 29 29 27 26 27 26 24 23 23 22 21 20 20 19 20 21 22 21 21 21 21 21 21 22 23 24 25 28 30 33 35 37 36 36 37 38 39 39 40 40 39 38 37 35 34 34
31 31 31 32 31 29 30 29 29 28 26 26 26 25 23 23 23 23 23 25 25 25 25 25 26 25 26 26 27 29 31 34 36 38 38 38 37 39 40 39 38 38 38 37 37 37 35 32 32
32 32 33 34 33 33 33 32 31 31 29 29 29 28 27 26 26 26 27 27 28 28 28 28 29 29 29 30 30 32 34 36 39 40 40 40 40 40 37 34 33 33 33 34 34 33 32 31 30
33 32 33 35 36 36 35 34 34 34 33 32 32 31 31 30 30 30 30 30 30 30 30 31 31 31 31 32 33 34 37 39 41 41 42 43 41 37 35 31 29 27 27 28 28 29 30 30 30
33 33 33 35 36 38 39 37 36 38 37 36 36 35 35 33 32 32 32 32 31 31 31 32 32 33 33 34 35 37 39 40 42 43 42 42 42 39 34 32 30 28 27 28 28 29 30 31 33
33 33 33 35 36 38 38 38 35 39 38 39 39 38 37 36 34 33 33 32 31 31 32 33 34 35 36 37 38 39 41 42 43 42 42 42 41 39 34 32 32 32 31 32 32 32 33 35 38
33 33 33 34 35 38 37 37 34 41 38 38 39 39 38 37 36 34 33 32 31 32 33 34 36 37 38 39 40 41 42 42 42 42 42 42 42 39 36 37 36 35 35 35 36 38 39 41 43
33 33 32 32 34 33 35 34 35 40 37 36 36 37 36 35 34 33 32 32 32 33 34 36 37 38 39 40 41 42 42 42 42 42 42 41 41 41 40 39 38 39 39 40 42 43 44 46 48
32 32 30 25 24 25 32 30 36 35 34 32 32 32 32 32 31 30 30 30 31 32 33 34 36 37 38 40 41 41 42 42 42 42 42 42 42 42 43 43 43 44 45 46 47 48 49 51 52
29 30 28 27 25 21 22 30 32 31 31 29 29 28 28 28 28 28 28 29 30 31 32 33 35 37 38 40 41 42 42 42 43 43 43 43 45 46 47 48 49 49 50 51 51 52 53 54 55
28 27 28 29 25 21 21 24 26 28 28 27 27 26 25 25 25 26 27 28 29 31 32 34 36 37 39 40 41 42 43 44 44 45 45 47 49 50 51 52 53 53 53 53 54 54 54 55 56
26 28 28 26 23 20 18 21 27 25 25 24 24 24 24 24 24 25 27 28 30 32 33 35 36 38 39 41 42 43 44 45 46 48 49 51 52 53 55 55 56 56 56 55 55 56 55 56 56
23 23 25 24 24 24 20 23 25 24 24 24 24 24 24 25 25 27 28 30 31 33 34 36 37 39 40 42 44 45 47 49 51 53 54 56 57 58 59 59 59 58 57 56 56 56 56 56 56

GEFSSGP_500_meanwind_054.txt.gz
Wind_Speed
21 19 18 15 13 10 1 4 6 9 13 12 12 12 13 15 13 12 12 11 8 8 8 10 10 10 9 9 9 9 9 9 9 10 11 11 12 12 12 13 13 13 13 13 13 13 13 13 12
23 22 21 19 17 11 7 6 5 12 16 12 12 12 13 14 13 12 11 9 6 7 7 8 8 8 8 7 7 7 7 6 7 7 8 9 9 10 10 11 11 11 11 11 11 11 12 11 11
25 25 24 23 20 13 7 4 7 10 13 12 11 11 12 12 11 10 9 8 6 6 6 7 7 6 6 5 5 5 4 4 4 5 6 7 7 7 8 8 9 9 9 10 10 11 11 11 11
25 27 27 26 23 15 9 8 9 8 10 11 11 11 11 10 10 8 8 7 5 6 6 6 5 5 4 3 3 2 2 3 4 4 4 5 5 6 6 7 8 8 9 10 10 11 11 11 11
25 27 28 28 26 20 14 11 12 12 10 10 10 13 11 9 8 7 7 6 6 6 6 6 5 5 4 3 1 1 1 2 3 3 4 4 5 6 6 7 8 8 9 10 11 11 12 12 12
24 26 27 27 24 20 15 14 16 14 11 10 11 14 10 8 7 6 6 6 6 6 6 6 6 6 5 4 3 1 1 1 2 3 3 4 5 5 6 7 8 9 10 10 11 12 12 12 13
21 23 24 23 22 20 16 16 18 17 13 12 12 15 12 9 7 6 6 6 6 7 7 7 6 6 5 4 3 2 2 1 2 2 3 4 5 6 6 7 8 9 10 11 12 13 13 13 13
18 21 22 23 23 20 17 16 19 18 16 14 14 14 14 9 7 7 7 7 7 7 6 6 6 5 5 4 3 2 2 2 2 3 4 5 6 6 7 8 9 10 11 12 13 14 14 14 14
16 18 19 20 19 17 14 17 18 17 18 16 13 17 14 8 8 7 8 8 7 7 6 6 5 4 4 3 2 2 2 3 4 5 6 6 8 8 9 10 11 12 13 14 15 15 16 15 15
15 14 15 17 16 15 16 20 19 18 18 16 16 19 12 10 9 8 8 8 7 7 6 5 4 2 1 1 2 4 5 5 6 7 8 9 10 11 12 13 14 15 16 16 17 17 17 17 17
16 15 17 17 17 19 20 20 20 19 19 17 18 19 13 11 10 10 10 8 7 6 5 4 2 2 3 4 6 6 7 7 8 9 10 12 13 13 14 16 17 18 19 20 20 20 20 20 20
18 17 18 19 20 21 21 20 19 19 20 19 20 20 15 13 12 12 11 9 8 7 5 5 4 5 6 8 9 9 10 9 10 12 13 15 16 17 18 20 21 21 23 24 24 24 23 23 24
20 20 20 19 18 18 20 20 20 20 21 20 19 21 19 14 13 12 12 11 10 8 7 7 8 9 10 11 12 12 13 13 14 15 17 18 20 21 22 24 24 25 26 26 28 28 28 27 28
21 22 21 19 18 17 18 19 21 20 21 21 21 19 16 14 14 14 14 13 11 11 10 10 11 12 13 14 15 16 16 17 17 18 20 22 23 23 25 26 27 28 29 31 31 31 31 32 32
24 23 22 19 17 16 16 17 17 18 20 21 21 19 17 14 14 15 15 14 13 12 13 13 14 14 15 17 18 19 19 20 20 20 22 24 25 25 26 27 29 31 31 33 33 32 32 33 34
25 23 21 19 19 17 16 14 14 16 19 20 20 19 19 16 16 17 19 17 16 15 15 16 17 17 18 19 20 21 22 23 23 23 25 26 27 27 28 30 32 32 32 32 32 33 33 33 33
24 22 20 18 19 18 17 12 11 14 17 20 20 18 18 18 19 20 21 19 18 17 17 18 19 19 20 22 23 24 25 25 26 26 27 28 29 30 30 32 34 33 34 33 32 32 31 31 31
19 18 18 16 18 19 17 15 14 17 19 19 19 19 21 20 21 21 22 21 19 19 19 19 21 22 23 24 26 27 27 28 29 30 31 31 31 32 33 34 34 34 34 33 32 31 29 29 28
20 18 16 15 19 22 20 19 19 19 19 19 19 20 21 22 23 23 24 23 22 22 21 21 23 24 25 26 28 30 30 31 32 34 34 35 34 35 34 35 34 35 35 33 32 31 30 29 28
25 23 20 18 22 26 23 22 22 21 21 22 23 24 26 26 26 26 25 24 24 24 24 24 26 27 29 30 31 32 33 34 35 35 36 36 36 36 36 37 36 36 35 33 32 32 31 29 28
29 26 23 21 24 28 26 24 25 25 25 26 26 28 28 28 27 26 27 28 27 27 27 28 29 31 32 33 34 35 36 37 37 38 38 39 39 39 39 39 38 37 36 35 33 33 33 32 32
29 28 27 26 26 27 27 25 24 25 27 29 30 31 30 28 29 30 30 29 30 31 30 31 33 34 35 36 37 37 38 39 39 40 40 41 41 42 41 41 40 39 38 37 35 35 35 35 35
29 26 27 29 30 29 26 24 21 22 27 31 33 34 32 30 30 31 32 33 33 34 34 34 36 36 37 37 38 38 39 40 41 42 43 43 44 43 43 43 42 41 40 39 38 38 38 38 39
29 28 27 28 30 32 28 25 21 23 29 33 34 34 32 31 31 33 34 35 36 36 37 37 37 37 37 38 38 39 41 42 43 44 45 45 45 45 44 45 44 43 42 42 42 42 42 43 43
29 28 26 26 28 28 24 25 26 29 32 35 36 35 34 33 33 34 35 36 37 37 37 37 37 37 37 37 38 40 42 44 45 46 46 46 46 46 46 46 46 46 45 46 46 46 46 47 48
28 28 26 20 16 15 17 21 28 33 35 37 38 38 38 37 36 36 36 36 36 36 35 36 36 36 36 37 39 41 43 44 45 46 47 47 47 47 48 48 48 48 49 49 49 50 50 51 52
25 26 25 23 20 15 15 26 32 32 33 35 38 39 40 39 38 36 35 33 33 33 34 35 35 36 37 38 40 41 43 45 46 47 48 48 49 50 50 50 51 52 52 53 53 53 54 54 55
22 21 23 27 25 20 14 23 30 30 30 32 34 36 36 35 34 33 32 31 31 32 33 34 35 36 37 39 41 42 44 45 47 48 49 51 51 52 52 53 54 55 55 56 57 57 57 58 58
20 21 23 24 26 23 18 22 25 27 28 30 29 28 28 29 28 29 29 30 30 31 33 34 35 37 38 40 42 44 45 47 48 50 51 52 53 54 55 56 58 59 59 60 60 60 60 59 59
17 20 21 25 25 26 24 27 27 27 29 28 26 24 24 25 26 28 29 30 31 32 33 35 36 38 40 42 44 45 47 48 50 51 53 54 55 57 58 59 60 61 61 61 60 61 61 61 60